MPEC 2002-L57 : 2002 LS32

The following Minor Planet Electronic Circular may be linked-to from your own Web pages, but must not otherwise be redistributed electronically.


Read MPEC 2002-L56 Read MPEC 2002-L58


M.P.E.C. 2002-L57                                Issued 2002 June 12, 14:39 UT

     The Minor Planet Electronic Circulars contain information on unusual
         minor planets and routine data on comets.  They are published
   on behalf of Commission 20 of the International Astronomical Union by the
          Minor Planet Center, Smithsonian Astrophysical Observatory,
                          Cambridge, MA 02138, U.S.A.

             Prepared using the Tamkin Foundation Computer Network

                              MPC@CFA.HARVARD.EDU
          URL http://cfa-www.harvard.edu/iau/mpc.html  ISSN 1523-6714

                                   2002 LS32

Observations:
     K02L32S* C2002 06 10.41529 20 16 12.95 -04 57 27.4          18.2        644
     K02L32S  C2002 06 10.42564 20 16 13.85 -04 57 03.1          18.2        644
     K02L32S  C2002 06 10.43620 20 16 14.82 -04 56 39.0          17.4        644
     K02L32S  C2002 06 11.33963 20 17 43.12 -04 19 54.5          17.9 R      649
     K02L32S  C2002 06 11.34145 20 17 43.26 -04 19 49.8          18.1 R      649
     K02L32S  C2002 06 11.34686 20 17 43.83 -04 19 35.8          17.9 R      649
     K02L32S  C2002 06 11.38955 20 17 48.27 -04 17 48.9                      670
     K02L32S UC2002 06 11.44787 20 17 53.56 -04 15 21.3                      670
     K02L32S  C2002 06 12.02427 20 18 51.60 -03 50 50.0          17.5 R      620
     K02L32S  C2002 06 12.02789 20 18 51.77 -03 50 42.8                      118
     K02L32S  C2002 06 12.02968 20 18 52.20 -03 50 36.5                      620
     K02L32S  C2002 06 12.03008 20 18 51.97 -03 50 36.3                      118
     K02L32S  C2002 06 12.03296 20 18 52.23 -03 50 28.8                      118
     K02L32S  C2002 06 12.03486 20 18 52.73 -03 50 24.3                      620
     K02L32S  C2002 06 12.03534 20 18 52.41 -03 50 22.9          17.9 R      118

Observer details:
118 Modra.  Observers L. Kornos, J. Toth.  0.6-m f/5.5 reflector + CCD.
620 Observatorio Astronomico de Mallorca.  Observers M. Blasco, J. Rodriguez.
    0.40-m f/2.0 Schmidt + CCD.
644 Palomar Mountain/NEAT.  Observers E. F. Helin, S. Pravdo, K. Lawrence,
    M. Hicks, R. Thicksten.  1.2-m Schmidt + CCD.
649 Powell Observatory, Louisburg.  Observer K. Smalley.  0.75-m Newtonian
    + CCD.
670 Camarillo.  Observer J. E. Rogers.  0.30-m f/6.7 Helin Telescope + CCD.

Orbital elements:
2002 LS32
Epoch 2002 May 26.0 TT = JDT 2452420.5                  MPC
M 324.05757              (2000.0)            P               Q
n   0.38074606     Peri.  148.86160     +0.85723853     -0.49518033
a   1.8852941      Node   241.46687     +0.43317462     +0.84176466
e   0.7097517      Incl.    9.24901     +0.27839154     +0.21500860
P   2.59           H   17.4           G   0.15
From 15 observations 2002 June 10-12.

Ephemeris:
2002 LS32                a,e,i = 1.89, 0.71, 9                   q = 0.5472
Date    TT    R. A. (2000) Decl.     Delta      r     Elong.  Phase     V
2002 06 05    20 08.03   -08 05.3    0.553    1.438   130.7    32.4    18.3
2002 06 15    20 24.10   -01 30.4    0.404    1.325   133.1    34.0    17.5
2002 06 25    20 48.51   +10 38.2    0.274    1.208   129.2    40.7    16.6
2002 07 05    21 47.02   +36 24.5    0.179    1.086   108.3    62.7    16.1
2002 07 15    02 13.81   +65 57.6    0.173    0.961    66.6   103.9    17.3
2002 07 25    06 10.79   +52 07.0    0.260    0.835    40.6   127.8    19.6

Timothy B. Spahr             (C) Copyright 2002 MPC           M.P.E.C. 2002-L57

Read MPEC 2002-L56 Read MPEC 2002-L58


Our Web policy. Index to the CBAT/MPC/ICQ pages.

MPC